Terug naar catalogus

STARLINK-37708

ActiefCommunicatieVLEO
NORAD 69469·PAYLOAD·🇺🇸 United States

Gelanceerd Jun 8, 2026 vanaf Cape Canaveral Space Force Station

Loading…

Volgende Passages (komende 24 uur)

TLE

VersSource: CelesTrak SupGP

Epoch: Sep 15, 2026, 03:10 UTC

1 69469C 26127AC  26258.13243056 -.00056130  00000+0 -16585-2 0  2580
2 69469  53.1573 190.8764 0001304  86.5923  34.4832 15.34415832    17

Volg STARLINK-37708 in realtime met AllMySat

Download on the App Store